Date String (YYYY-MM-DD hh:mm:ss) UTC,Instrument flags,absolute air pressure of the measurement (hPa),sample flow rate (lpm),inlet stack bypass flow (lpm),air temperature of the measurement (°C),ambient temperature measured by the external sensor (°C),aerosol sample conditioner tube jacket temperature (°C),OPC LED temperature (°C),internal box temperature (°C),relative humidity of the measurement (%),span deviation,mass concentration of particles derived from Lorenz-Mie calculation of OPC scattering (μg/m³),mass concentration of particles derived from Lorenz-Mie calculation of OPC scattering (μg/m³),mass concentration of particles derived from Lorenz-Mie calculation of OPC scattering (μg/m³)
DateTimeUTC,F1_M11,P_M11,Q1_M11,Q2_M11,T1_M11,T2_M11,T3_M11,T4_M11,T5_M11,U1_M11,ZSPAN_M11,X0_M11,X2_M11,X1_M11
2023-08-17 18:00:00,SystemResetWarning,0835.5,4.99,000.00,028.4,025.0,000.0,036.1,029.4,33.4,0000.1,0031.60,0016.09,0014.54
2023-08-17 18:01:00,SystemResetWarning,0835.5,5.02,000.00,028.4,024.0,000.0,036.1,029.3,33.2,0000.2,0032.03,0016.08,0014.54
2023-08-17 18:02:00,SystemResetWarning,0835.4,4.99,000.00,028.4,024.0,000.0,036.0,029.2,33.3,0000.4,0031.78,0016.07,0014.53
2023-08-17 18:03:00,SystemResetWarning,0835.4,5.00,000.00,028.4,024.4,000.0,036.1,029.2,33.3,0000.6,0031.39,0016.11,0014.56
2023-08-17 18:04:00,SystemResetWarning,0835.4,5.00,000.00,028.4,024.8,000.0,036.2,029.2,33.6,0000.7,0031.41,0016.09,0014.55
2023-08-17 18:05:00,SystemResetWarning,0835.4,5.00,000.00,028.4,025.2,000.0,036.3,029.4,33.3,0000.7,0030.28,0016.08,0014.55
2023-08-17 18:06:00,SystemResetWarning,0835.4,5.00,000.00,028.4,025.6,000.0,036.3,029.5,32.9,0000.6,0030.31,0016.17,0014.58
2023-08-17 18:07:00,SystemResetWarning,0835.4,5.00,000.00,028.5,025.9,000.0,036.4,029.6,32.9,0000.6,0029.53,0016.19,0014.58
2023-08-17 18:08:00,SystemResetWarning,0835.4,5.00,000.00,028.5,026.1,000.0,036.4,029.6,32.6,0000.9,0029.33,0016.22,0014.59
2023-08-17 18:09:00,SystemResetWarning,0835.4,4.98,000.00,028.5,025.1,000.0,036.4,029.4,32.6,0001.1,0028.85,0016.27,0014.62
2023-08-17 18:10:00,SystemResetWarning,0835.4,5.00,000.00,028.4,024.1,000.0,036.3,029.2,32.5,0001.5,0028.52,0016.24,0014.62
2023-08-17 18:11:00,SystemResetWarning,0835.3,5.02,000.00,028.4,024.0,000.0,036.3,029.2,32.6,0001.8,0028.11,0016.17,0014.61
2023-08-17 18:12:00,SystemResetWarning,0835.3,4.99,000.00,028.3,024.3,000.0,036.3,029.2,32.8,0001.6,0027.98,0016.16,0014.61
2023-08-17 18:13:00,SystemResetWarning,0835.3,5.00,000.00,028.3,024.7,000.0,036.3,029.2,33.4,0001.3,0028.20,0016.16,0014.61
2023-08-17 18:14:00,SystemResetWarning,0835.2,5.00,000.00,028.2,025.2,000.0,036.4,029.3,33.2,0001.1,0028.42,0016.18,0014.60
2023-08-17 18:15:00,SystemResetWarning,0835.3,5.00,000.00,028.3,025.6,000.0,036.4,029.5,33.3,0000.8,0028.67,0016.18,0014.60
2023-08-17 18:16:00,SystemResetWarning,0835.3,5.00,000.00,028.3,025.9,000.0,036.5,029.5,33.3,0000.6,0029.44,0016.14,0014.61
2023-08-17 18:17:00,SystemResetWarning,0835.3,5.00,000.00,028.3,026.1,000.0,036.5,029.6,33.5,0000.6,0029.41,0016.06,0014.60
2023-08-17 18:18:00,SystemResetWarning,0835.2,4.98,000.00,028.3,025.2,000.0,036.4,029.5,33.6,0000.8,0030.19,0016.13,0014.61
2023-08-17 18:19:00,SystemResetWarning,0835.2,5.01,000.00,028.3,024.1,000.0,036.3,029.3,33.7,0000.7,0030.45,0016.19,0014.65
2023-08-17 18:20:00,SystemResetWarning,0835.2,5.00,000.00,028.2,024.0,000.0,036.2,029.2,33.6,0000.8,0029.18,0016.19,0014.66
2023-08-17 18:21:00,SystemResetWarning,0835.2,5.01,000.00,028.1,024.3,000.0,036.3,029.1,33.5,0000.7,0028.91,0016.15,0014.66
2023-08-17 18:22:00,SystemResetWarning,0835.3,5.01,000.00,028.1,024.7,000.0,036.3,029.2,33.5,0000.7,0029.58,0016.20,0014.68
2023-08-17 18:23:00,SystemResetWarning,0835.3,5.00,000.00,028.1,025.1,000.0,036.3,029.3,33.9,0000.6,0029.88,0016.30,0014.70
2023-08-17 18:24:00,SystemResetWarning,0835.3,5.00,000.00,028.1,025.5,000.0,036.3,029.4,34.0,0000.9,0029.95,0016.37,0014.72
2023-08-17 18:25:00,SystemResetWarning,0835.3,5.00,000.00,028.1,025.9,000.0,036.4,029.5,33.8,0001.0,0030.12,0016.38,0014.72
2023-08-17 18:26:00,SystemResetWarning,0835.3,5.00,000.00,028.2,026.1,000.0,036.4,029.6,33.6,0001.4,0029.75,0016.39,0014.71
2023-08-17 18:27:00,SystemResetWarning,0835.3,4.98,000.00,028.2,025.3,000.0,036.3,029.5,34.2,0001.7,0030.07,0016.45,0014.69
2023-08-17 18:28:00,SystemResetWarning,0835.2,5.00,000.00,028.1,024.1,000.0,036.2,029.2,34.4,0001.8,0030.78,0016.48,0014.69
2023-08-17 18:29:00,SystemResetWarning,0835.2,5.03,000.00,028.1,024.0,000.0,036.2,029.2,34.7,0001.5,0030.15,0016.39,0014.66
2023-08-17 18:30:00,SystemResetWarning,0835.1,4.97,000.00,028.0,024.3,000.0,036.2,029.1,34.6,0001.5,0029.17,0016.37,0014.64
2023-08-17 18:31:00,SystemResetWarning,0835.1,5.01,000.00,028.0,024.7,000.0,036.2,029.2,34.8,0001.7,0028.91,0016.34,0014.61
2023-08-17 18:32:00,SystemResetWarning,0835.2,5.02,000.00,028.1,025.1,000.0,036.2,029.3,34.2,0001.8,0029.05,0016.37,0014.61
2023-08-17 18:33:00,SystemResetWarning,0835.1,5.00,000.00,028.1,025.5,000.0,036.3,029.4,33.7,0001.7,0029.39,0016.35,0014.60
2023-08-17 18:34:00,SystemResetWarning,0835.1,4.99,000.00,028.1,025.9,000.0,036.3,029.5,33.6,0001.6,0029.34,0016.27,0014.56
2023-08-17 18:35:00,SystemResetWarning,0835.1,5.01,000.00,028.2,026.1,000.0,036.3,029.6,33.5,0001.8,0028.76,0016.22,0014.53
2023-08-17 18:36:00,SystemResetWarning,0835.1,4.99,000.00,028.2,025.4,000.0,036.3,029.5,33.9,0001.7,0028.11,0016.14,0014.48
2023-08-17 18:37:00,SystemResetWarning,0835.0,5.00,000.00,028.2,024.2,000.0,036.2,029.3,34.2,0001.7,0029.56,0016.12,0014.44
2023-08-17 18:38:00,SystemResetWarning,0835.0,5.02,000.00,028.1,024.0,000.0,036.1,029.2,33.9,0001.4,0030.03,0016.04,0014.42
2023-08-17 18:39:00,SystemResetWarning,0835.0,5.00,000.00,028.0,024.3,000.0,036.2,029.1,33.9,0001.5,0029.33,0016.03,0014.41
2023-08-17 18:40:00,SystemResetWarning,0835.0,5.00,000.00,028.0,024.6,000.0,036.2,029.1,33.8,0001.6,0030.48,0016.02,0014.39
2023-08-17 18:41:00,SystemResetWarning,0835.0,5.00,000.00,028.0,025.1,000.0,036.2,029.3,33.6,0001.8,0030.93,0016.01,0014.37
2023-08-17 18:42:00,SystemResetWarning,0835.0,5.00,000.00,028.0,025.5,000.0,036.2,029.4,33.4,0001.8,0031.99,0016.03,0014.35
2023-08-17 18:43:00,SystemResetWarning,0834.9,5.00,000.00,028.0,025.9,000.0,036.3,029.5,33.6,0001.8,0032.36,0016.01,0014.33
2023-08-17 18:44:00,SystemResetWarning,0835.0,4.99,000.00,028.1,026.1,000.0,036.3,029.6,33.3,0001.8,0032.02,0016.03,0014.31
2023-08-17 18:45:00,SystemResetWarning,0835.0,4.99,000.00,028.1,025.5,000.0,036.2,029.4,33.5,0001.9,0031.70,0016.04,0014.29
2023-08-17 18:46:00,SystemResetWarning,0835.4,5.00,000.00,028.0,024.1,000.0,036.1,029.2,33.3,0001.9,0032.93,0016.07,0014.27
2023-08-17 18:47:00,SystemResetWarning,0835.4,5.01,000.00,027.9,023.9,000.0,036.1,029.0,33.5,0001.8,0034.38,0016.07,0014.28
2023-08-17 18:48:00,SystemResetWarning,0834.9,5.00,000.00,027.9,024.2,000.0,036.1,029.0,33.7,0001.9,0034.76,0016.07,0014.30
2023-08-17 18:49:00,SystemResetWarning,0835.2,4.99,000.00,027.8,024.6,000.0,036.1,029.1,34.2,0001.9,0034.50,0016.17,0014.35
2023-08-17 18:50:00,SystemResetWarning,0835.2,5.00,000.00,027.8,025.0,000.0,036.1,029.2,33.5,0001.7,0034.26,0016.28,0014.37
2023-08-17 18:51:00,SystemResetWarning,0835.1,4.99,000.00,027.9,025.5,000.0,036.2,029.3,33.2,0001.7,0033.29,0016.32,0014.37
2023-08-17 18:52:00,SystemResetWarning,0835.0,5.01,000.00,027.9,025.8,000.0,036.2,029.4,33.3,0001.6,0033.56,0016.33,0014.38
2023-08-17 18:53:00,SystemResetWarning,0835.2,5.01,000.00,027.9,026.1,000.0,036.2,029.5,33.5,0001.6,0033.53,0016.38,0014.38
2023-08-17 18:54:00,SystemResetWarning,0834.8,4.99,000.00,028.0,025.6,000.0,036.1,029.5,33.1,0001.3,0033.27,0016.45,0014.39
2023-08-17 18:55:00,SystemResetWarning,0834.7,4.99,000.00,027.9,024.3,000.0,036.0,029.2,33.1,0001.8,0033.66,0016.46,0014.42
2023-08-17 18:56:00,SystemResetWarning,0834.7,5.01,000.00,027.8,024.0,000.0,036.0,029.1,33.5,0002.0,0033.38,0016.53,0014.47
2023-08-17 18:57:00,SystemResetWarning,0834.9,5.01,000.00,027.8,024.3,000.0,036.0,029.0,33.3,0002.2,0032.32,0016.51,0014.48
2023-08-17 18:58:00,SystemResetWarning,0835.2,4.99,000.00,027.7,024.7,000.0,036.0,029.1,33.6,0002.1,0031.24,0016.57,0014.49
2023-08-17 18:59:00,SystemResetWarning,0834.8,5.00,000.00,027.7,025.1,000.0,036.0,029.2,33.5,0001.9,0031.14,0016.59,0014.50
